Showing default

BEIDOU 3 G3, 45807

Orbit data source: Space-Track

BEIDOU 3 G3, 45807 is a payload satellite owned by CNSA (CN) in GEO that was launched on Tue, 23 Jun 2020 UTC via a CHANG ZHENG 3B launch vehicle from the Xichang Space Center, China (XSC). Payload-class satellites include a variety of spacecraft equipped with specific instruments for various scientific and technological missions. These include communications satellites like Starlink; space stations such as the ISS; scientific satellites like the Hubble; Earth observation satellites from companies like Planet Labs, Umbra, and HawkEye 360; GPS; miniature CubeSats for education and research; and military/defense satellites.

Not visible in the next 10 days
Identifier
45807, 2020-040A
Orbit
GEO
Last TLE update
7 hours ago
Origin
Manufacturer
CAST
Mission
Operational Defense Navigation
Bus & Motor
DFH-3B, FY-25
Mass
~3,060 kg wet, 1,700 kg dry
Launch date (UTC)
2020-06-23 (5 years ago)
Launch vehicle
CHANG ZHENG 3B
Launch site
Xichang Space Center, China (XSC)
Object type
Payload
Rocket body
Debris
Shape & HBR
Box + 2 Pan, Unknown HBR
Radar Cross Section
13.998 m², Large (>1 m²)

Expand to show TLE details & history

TLE from 7 hours ago
0 BEIDOU 3 G3
1 45807U 20040A   25186.63057727 -.00000339  00000-0  00000-0 0  9995
2 45807   1.6041  64.4908 0004901 347.4075 209.5026  1.00274741 18596
Epoch: 2025-07-05T15:08Z
TLE epoch observation values (Epoch: 2025-07-05T15:08:01.876Z)
Latitude
-0.48555°
Longitude
110.49755°
Altitude
35,803.351 km
Speed
3.073 km/s
True Right ascension
17h 25m 29s
True Declination
0° 29' 06"
Sunlit
Object was in daylight at epoch
Visualization orbit readout
Latitude
-1.35183°
Longitude
-143.47282°
Altitude
35,770.815 km
Speed
3.076 km/s
Apparent Right ascension
00h 15m 26s
Apparent Declination
-6° 15' 16"
Sunlit
Object is in daylight
Visualization observer readout
Local Sidereal Time
10:07:06
Azimuth
310.871° NW
Elevation
-45.716°
Doppler factor
1
Orbital elements
Apogee altitude
35,807.501 km
Perigee altitude
35,766.17 km
Semi-major axis
42,164.972 km
Eccentricity
0.00049
Inclination
1.6041°
RAAN
64.4908°
Arg. of periapsis
347.4075°
True anomaly
Unknown
Mean anomaly
209.5026°
Eccentric anomaly
Unknown
Mean motion
0.25068 °/min
Orbital period
1,436.11 mins
BSTAR
0
Loading historical data...
45807 neighbors
Loading maneuver chart data...
Loading SW <> Apogee altitude chart data...
Loading historical data...
Loading historical data...
Loading historical data...
Loading historical data...
Loading historical data...
Loading historical data...
Loading historical data...
Other satellites on launch #40 in the year 2020 (2020-06-23 UTC)

BEIDOU 3 G3 Visibility

Observer location: undefined°, undefined°

BEIDOU 3 G3 is likely not visible in the next few days
Span
Click to sort rows by Start time (UTC) header in descending order
Start Az.
Max El. time (UTC)
Max El. Az.
Max El.
End time (UTC)
End Az.
|